Погода в Шиньянге

Танзания     3°40′12″S   33°25′30″E
темп.,
°C
ветер,
м/с
пор.,
м/с
влажн.,
%
обл.,
%
осадки,
мм/ч
давл.,
гПа
погр.,
м
18 апреля, вс
вс1800:00+19юв2487100 0.0 101388
03:00+18юв258868 0.0 1012130
06:00+17вюв249179 0.0 1014104
09:00+21вюв5877100 0.0 1015682
12:00+24юв6761100 0.0 10141519
15:00+24ююв4562100 0.0 1011999
18:00+24ююв236953 0.0 101178
21:00+21ююв3107696 0.1 1014338
19 апреля, пн
пн1900:00+20юв31084100 0.0 1014309
03:00+18юв3792100 0.0 1013212
06:00+17юв369523 0.0 1014182
09:00+21юв477863 0.0 1015646
12:00+25вюв6859100 0.0 10131582
15:00+24ююв3465100 0.1 1011621
18:00+22ююв377783 0.8 1012318
21:00+19юв4108516 0.8 1014264
20 апреля, вт
вт2000:00+18ююв279098 0.0 1014183
03:00+17вюв2392100 0.0 101275
06:00+17юв239397 0.0 101459
09:00+20юв2381100 0.0 1016328
12:00+22ююв456985 0.0 1015839
15:00+26ююв4459100 0.9 10101447
18:00+23ююв3676100 2.3 1010274
21:00+19ю2588100 3.3 1013106
21 апреля, ср
ср2100:00+18ююв2390100 0.0 101456
03:00+17ю2595100 0.0 1013144
06:00+16ю2296100 0.0 101557
09:00+19юв2382100 0.0 1016349
12:00+24юв3364100 0.0 10151084
15:00+26ююв2256100 0.1 10101514
18:00+23ю2270100 0.4 101120
21:00+21ююв3778100 0.4 1013190
22 апреля, чт
чт2200:00+19ююв3987100 0.2 1015246
03:00+17вюв2493100 0.5 101399
06:00+18в2396100 0.1 101487
09:00+21вюв3681100 0.1 1016530
12:00+24вюв2362100 0.0 10141193
15:00+26вюв125599 0.0 10111366
18:00+24сз116989 0.0 101023
21:00+21зюз227593 0.0 101215